This demonstration page uses our WeatherBlox Daily Observations layout. Learn more.

38.80484, -77.04692

Hourly Observations for August 17, 2019

Temp ( °F °C ) Dew Point ( °F °C ) Humidity (%) Winds ( mph kmh ) Pressure ( in mb ) Visibility ( mi km ) Precip ( " mm )
12:52 am 00:52 Mostly Cloudy 79 26.1 74 23.3 85 85 SSE 7 11 29.97 1015 10 16.09344 0 0
1:52 am 01:52 Mostly Cloudy 78 25.6 74 23.3 87 87 SE 5 7 29.97 1015 10 16.09344 0 0
2:52 am 02:52 Mostly Cloudy 78 25.6 74 23.3 87 87 Calm 29.97 1015 10 16.09344 0 0
2:59 am 02:59 Mostly Clear 78 25.6 74 23.3 87 87 Calm 30 1016 10 16.09344 0 0
3:52 am 03:52 Mostly Cloudy 77 25 74 23.3 90 90 Calm 29.97 1015 10 16.09344 0 0
4:52 am 04:52 Mostly Cloudy 77 25 73 22.8 88 88 SE 5 7 29.97 1015 10 16.09344 0 0
5:52 am 05:52 Partly Cloudy 77 25 73 22.8 88 88 Calm 29.94 1014 10 16.09344 0 0
6:52 am 06:52 Mostly Cloudy 77 25 74 23.3 90 90 Calm 29.97 1015 10 16.09344 0 0
7:52 am 07:52 Mostly Cloudy 79 26.1 74 23.3 85 85 Calm 29.97 1015 10 16.09344 0 0
7:56 am 07:56 Mostly Cloudy 79 26.1 74 23.3 85 85 Calm 30 1016 10 16.09344 0 0
8:01 am 08:01 Mostly Cloudy 79 26.1 73 22.8 82 82 Calm 30 1016 10 16.09344 0 0
8:20 am 08:20 Mostly Cloudy 79 26.1 73 22.8 82 82 Calm 30 1016 10 16.09344 0 0
8:52 am 08:52 Cloudy 79 26.1 75 23.9 88 88 S 5 7 30 1016 10 16.09344 0 0
9:02 am 09:02 Mostly Cloudy 79 26.1 74 23.3 85 85 SSE 3 6 30 1016 10 16.09344 0 0
9:21 am 09:21 Mostly Cloudy 80 26.7 74 23.3 82 82 S 3 6 30 1016 10 16.09344 0 0
9:39 am 09:39 Mostly Cloudy 81 27.2 74 23.3 79 79 SW 5 7 30 1016 10 16.09344 0 0
9:52 am 09:52 Mostly Cloudy 82 27.8 73 22.8 74 74 S 5 7 30 1016 10 16.09344 0 0
10:00 am 10:00 Partly Cloudy 82 27.8 74 23.3 77 77 SSW 5 7 30 1016 10 16.09344 0 0
10:52 am 10:52 Mostly Cloudy 85 29.4 74 23.3 70 70 S 5 7 30 1016 10 16.09344 0 0
12:52 pm 12:52 Mostly Cloudy 89 31.7 72 22.2 57 57 SSE 7 11 29.97 1015 10 16.09344 0 0
1:52 pm 13:52 Mostly Cloudy 91 32.8 71 21.7 52 52 SSE 8 13 29.97 1015 10 16.09344 0 0
2:52 pm 14:52 Mostly Cloudy 91 32.8 70 21.1 50 50 SSE 8 13 29.94 1014 10 16.09344 0 0
3:52 pm 15:52 Mostly Cloudy 92 33.3 70 21.1 49 49 S 6 9 29.94 1014 10 16.09344 0 0
4:52 pm 16:52 Mostly Cloudy 89 31.7 71 21.7 55 55 SE 13 20 29.91 1013 10 16.09344 0 0
5:52 pm 17:52 Mostly Cloudy 88 31.1 70 21.1 55 55 E 8 13 29.94 1014 10 16.09344 0 0
6:52 pm 18:52 Mostly Cloudy 88 31.1 71 21.7 57 57 SSE 7 11 29.94 1014 10 16.09344 0 0
7:52 pm 19:52 Mostly Cloudy with Thunderstorms 87 30.6 73 22.8 63 63 WSW 10 17 29.94 1014 10 16.09344 0 0
8:19 pm 20:19 Mostly Cloudy 85 29.4 71 21.7 63 63 SW 7 11 29.97 1015 10 16.09344 0 0
8:52 pm 20:52 Mostly Cloudy 84 28.9 69 20.6 61 61 SW 6 9 29.94 1014 10 16.09344 0 0
9:52 pm 21:52 Mostly Cloudy 82 27.8 71 21.7 69 69 Calm 29.97 1015 10 16.09344 0 0
10:52 pm 22:52 Mostly Cloudy 80 26.7 71 21.7 74 74 S 5 7 29.97 1015 10 16.09344 0 0
11:52 pm 23:52 Mostly Cloudy 76 24.4 70 21.1 82 82 SSW 5 7 29.97 1015 10 16.09344 0 0

Powered by AerisWeather